Location: ??????
(41.3794°N, 22.5014°E)
Time: 07:30:34
(UTC+00:00)

Cosmos 1602 - Pass Details

Date: 30 November 2020
Orbit: 512 x 535 km, 82.5° (Epoch: 17 January)

Event Time Altitude Azimuth Distance (km) Brightness Sun altitude
Rises 16:18:37 0° 353° (N) 2,684 7.2 -14.2°
Reaches altitude 10° 16:20:47 10° 355° (N) 1,786 6.3 -14.5°
Maximum altitude 16:24:42 79° 82° (E) 543 3.6 -15.2°
Drops below altitude 10° 16:28:34 10° 169° (S) 1,758 6.4 -15.9°
Sets 16:30:41 0° 171° (S) 2,637 7.4 -16.3°
